User: anonymous   Login
Location: West Cummington
(42.4920°N, 72.9680°W)
Time: 16:32:34
(UTC-04:00)
Language:

Cosmos 841 Rocket - Orbit

View from above orbital plane
View from above orbital plane
View from above satellite
View from above satellite

Ground track
Ground track

The orbit data is extracted from the following two-line orbital elements,

1 09023U 76069B   14296.75137694  .00000632  00000-0  21187-3 0  5232
2 09023 074.0446 081.8856 0016700 127.7882 232.4788 14.39217136  5620
Epoch (UTC): 23 October 2014 18:01:58
Eccentricity: 0.0016700
inclination: 74.0446°
perigee height: 749 km
apogee height: 773 km
right ascension of ascending node: 81.8856°
argument of perigee: 127.7882°
revolutions per day: 14.39217136
mean anomaly at epoch: 232.4788°
orbit number at epoch: 562

The dashed part of the orbit path shows where the satellite is in the earth's shadow,  

DLR